Terminal Aerodrome Forecast
Issued by NWS

Home | Current Version | Previous Version | Text Only | Print | Product List | Glossary On
Versions: 1 2 3 4 5 6 7 8 9 10 11 12 13 14 15 16 17 18 19 20 21 22 23 24 25 26 27 28 29 30 31 32 33 34
000
FTUS45 KSLC 081419 AAA
TAF36U
TAF AMD
K36U 081419Z 0814/0912 00000KT 6SM BR SKC
      TEMPO 0814/0816 1SM BR BKN002
     FM081700 VRB04KT P6SM FEW150
     FM090400 00000KT 3SM BR SKC=

USA.gov is the U.S. government's official web portal to all federal, state and local government web resources and services.